Погода в Бутурлино

Россия / Нижегородская область     55°34′04″N   44°54′17″E
темп.,
°C
ветер,
м/с
пор.,
м/с
влажн.,
%
обл.,
%
осадки,
мм/ч
давл.,
гПа
погр.,
м
21 апреля, ср
ср2100:00+6вюв91749100 0.0 1019964
03:00+4вюв112178100 3.7 1016905
06:00+2юв112189100 5.1 1014910
09:00+5юв101781100 5.1 1014948
12:00+6ююв10177898 0.0 1013898
15:00+8ююв81578100 0.0 10131064
18:00+6ююв91687100 0.1 1013644
21:00+6ююв81692100 0.9 1013730
22 апреля, чт
чт2200:00+6зюз91192100 1.1 1014904
03:00+5юз51185100 1.3 1017601
06:00+5ююв3792100 0.0 1018285
09:00+8ю61085100 0.3 1019828
12:00+11юз9135967 0.5 10191836
15:00+10юз686598 0.6 10201456
18:00+9юз476898 0.1 1021348
21:00+7юз2376100 0.2 102246
23 апреля, пт
пт2300:00+5ю22829 0.0 102315
03:00+5ююв368297 0.0 1023127
06:00+6ююв388075 0.0 1023191
09:00+11ю586392 0.0 1023488
12:00+15ююз454725 0.0 10221337
15:00+15ю455082 0.0 1022689
18:00+12юв346299 0.0 102160
21:00+10юв367096 0.0 102181
24 апреля, сб
сб2400:00+10юв237195 0.0 101955
03:00+8вюв358477 0.0 1018120
06:00+8юв51085100 0.3 1017309
09:00+12юв68645 0.4 1015859
12:00+14юв66516 0.0 10131681
15:00+14юв464597 0.0 10101679
18:00+12юв71263100 0.1 1009695
21:00+10юв71275100 0.1 1007759
25 апреля, вс
вс2500:00+6зюз7993100 3.4 1006725
03:00+5зюз51189100 6.5 1007867
06:00+4юз6108421 0.1 1008671
09:00+7зюз8106820 0.1 10091293
12:00+8юз8105694 0.1 10101911
15:00+9зюз894992 0.6 10101845
18:00+7зюз58605 0.9 10111005
21:00+4юз36755 0.9 1012100